Home   Weather   Ribeirão Prêto   Past weeks

Flag for Brazil Past Weather in Ribeirão Prêto, São Paulo, Brazil — Yesterday and Last 2 Weeks

Now
84 °F

Passing clouds.


Feels Like: 84 °F
Forecast: 61 / 88 °F
Wind: 10 mph from Southeast

Location: Leite Lopes / Ribeir

Current Time: Aug 19, 2017 at 3:52:42 pm

Latest Report: Aug 19, 2017 at 3:00 pm


Visibility: N/A

Pressure: 29.89 "Hg (28.09 "Hg at 549m altitude)

Humidity: 45%

Dew Point: 61 °F

Location of Ribeirão PrêtoLocation

Past Weather in Ribeirão Prêto — Graph

°F

Ribeirão Prêto Temperature Yesterday

Maximum temperature yesterday: 70 °F (at 3:00 pm)
Minimum temperature yesterday: 63 °F (at 12:00 am)
Average temperature yesterday: 65 °F

High & Low Weather Summary for the Past Weeks

 TemperatureHumidityPressure
High93 °F (Aug 12, 2:00 pm)100% (Aug 17, 7:00 pm)30.18 "Hg (Aug 17, 7:00 pm)
Low52 °F (Aug 6, 5:00 am)16% (Aug 12, 3:00 pm)29.89 "Hg (Aug 19, 3:00 pm)
Average71 °F61%30.04 "Hg
* Reported Aug 4 3:00 pm — Aug 19 3:00 pm, Ribeirão Prêto. Weather by CustomWeather, © 2017

Note: Actual official high and low records may vary slightly from our data, if they occured in-between our weather recording intervals... More about our weather records

Advertising

Ribeirão Prêto Weather History for the Previous 24 Hours

Scroll right to see more
 ConditionsComfort  
Time TempWeatherWind HumidityBarometerVisibility
3:00 pm
Sat, Aug 19
84 °FPassing clouds.10 mph45%29.89 "HgN/A
2:00 pm84 °FPassing clouds.9 mph45%29.92 "HgN/A
1:00 pm84 °FPassing clouds.8 mph45%29.95 "HgN/A
12:00 pm82 °FSunny.6 mph48%29.98 "Hg10 mi
11:00 am79 °FSunny.9 mph54%29.98 "Hg10 mi
10:00 am77 °FSunny.8 mph61%30.01 "Hg10 mi
9:00 am72 °FSunny.7 mph73%30.01 "Hg10 mi
8:00 am66 °FSunny.5 mph88%30.01 "Hg10 mi
6:00 am64 °FClear.6 mph88%29.98 "Hg10 mi
5:00 am64 °FClear.7 mph88%29.98 "Hg10 mi
4:00 am66 °FClear.2 mph83%29.98 "Hg10 mi
3:00 am64 °FClear.5 mph88%29.98 "Hg10 mi
2:00 am64 °FClear.9 mph94%29.95 "Hg10 mi
1:00 am64 °FClear.7 mph94%29.98 "Hg10 mi
12:00 am64 °FClear.7 mph94%30.01 "Hg10 mi
11:00 pm
Fri, Aug 18
64 °FClear.3 mph94%30.01 "Hg10 mi
10:00 pm66 °FClear.5 mph88%30.04 "Hg10 mi
9:00 pm66 °FClear.5 mph94%30.04 "Hg10 mi
8:00 pm66 °FClear.5 mph88%30.01 "Hg10 mi
7:00 pm68 °FClear.6 mph83%30.01 "Hg10 mi
6:00 pm68 °FClear.6 mph88%30.01 "Hg10 mi
5:00 pm70 °FSunny.6 mph83%29.98 "Hg10 mi
4:00 pm70 °FMore clouds than sun.7 mph83%30.01 "HgN/A
3:00 pm70 °FFog.7 mph83%30.01 "Hg3 mi
Weather by CustomWeather, © 2017

See weather overviewHow to use our weather pages